DW6399 Weather Reports


Display with metric or nautical units.
time (UTC)temp
F
wind
direction
speed
MPH
gust
MPH
rain 1hr
in
rain 24hr
in
rain mn
in
humidity
%
barometer
mb
20260507181803 33 320 7.0 12.0 0.05 0.08 0.08 90 1015.1
20260507180903 33 319 8.0 11.0 0.05 0.07 0.07 90 1015.2
20260507180025 34 315 6.0 10.0 0.04 0.06 0.06 89 1015.2
20260507175404 34 308 5.0 10.0 0.03 0.05 0.05 89 1015.2
20260507174503 34 297 4.0 8.0 0.01 0.03 0.03 87 1015.1
20260507173604 36 276 3.0 9.0 0.01 0.03 0.03 84 1015.1
20260507172703 38 240 2.0 8.0 0.01 0.03 0.03 83 1015.0
20260507171825 40 213 3.0 9.0 0.01 0.03 0.03 81 1014.9
20260507170903 41 295 1.0 4.0 0.00 0.02 0.02 80 1014.6
20260507170004 41 359 2.0 4.0 0.00 0.02 0.02 79 1014.2
20260507165404 41 7 2.0 4.0 0.00 0.02 0.02 78 1014.0
20260507164504 42 18 2.0 7.0 0.00 0.02 0.02 76 1014.0
20260507163603 43 56 2.0 9.0 0.00 0.02 0.02 75 1013.8
20260507162704 43 54 2.0 7.0 0.00 0.02 0.02 73 1013.7
20260507161803 44 67 2.0 7.0 0.00 0.02 0.02 72 1013.5
20260507160904 44 15 1.0 4.0 0.00 0.02 0.02 70 1013.4
20260507160004 44 349 1.0 4.0 0.00 0.02 0.02 69 1013.4
20260507155404 44 353 1.0 5.0 0.00 0.02 0.02 69 1013.3
20260507154504 45 24 1.0 5.0 0.00 0.02 0.02 67 1013.4
20260507153604 45 61 1.0 3.0 0.00 0.02 0.02 66 1013.4
20260507152703 45 61 0.0 4.0 0.00 0.02 0.02 65 1013.3
20260507151803 45 61 1.0 4.0 0.00 0.02 0.02 63 1013.4
20260507150925 46 88 2.0 4.0 0.00 0.02 0.02 63 1013.5
20260507150004 46 88 2.0 7.0 0.00 0.02 0.02 64 1013.5
20260507145404 46 132 2.0 5.0 0.00 0.02 0.02 66 1013.5
20260507144504 46 142 3.0 7.0 0.00 0.02 0.02 67 1013.5
20260507143603 46 133 3.0 8.0 0.00 0.02 0.02 69 1013.6
20260507142724 45 144 3.0 8.0 0.00 0.02 0.02 69 1013.6
20260507141803 44 146 2.0 6.0 0.00 0.02 0.02 72 1013.6
20260507140903 43 207 1.0 4.0 0.00 0.02 0.02 72 1013.6
20260507140025 42 303 1.0 4.0 0.00 0.02 0.02 75 1013.6
20260507135403 42 333 3.0 4.0 0.00 0.02 0.02 73 1013.6
20260507134503 41 333 6.0 10.0 0.00 0.02 0.02 78 1013.6
20260507133604 40 316 8.0 13.0 0.00 0.02 0.02 78 1014.0
20260507132703 40 311 8.0 12.0 0.00 0.02 0.02 79 1014.2
20260507131803 41 316 6.0 11.0 0.01 0.02 0.02 80 1014.1
20260507130903 41 327 6.0 11.0 0.01 0.02 0.02 80 1014.0
20260507130025 41 335 4.0 8.0 0.02 0.02 0.02 81 1014.1
20260507125403 42 346 3.0 9.0 0.02 0.02 0.02 81 1014.0
20260507124503 42 318 6.0 10.0 0.02 0.02 0.02 85 1013.9
20260507123604 41 331 7.0 13.0 0.02 0.02 0.02 83 1014.0
20260507122705 40 318 7.0 13.0 0.02 0.02 0.02 84 1014.2
20260507121803 40 287 4.0 9.0 0.01 0.01 0.01 82 1014.3
20260507120903 41 222 3.0 6.0 0.01 0.01 0.01 80 1014.4
20260507120004 41 282 3.0 7.0 0.00 0.00 0.00 75 1014.3
20260507115424 42 251 1.0 4.0 0.00 0.00 0.00 76 1014.2
20260507114524 43 316 5.0 14.0 0.00 0.00 0.00 71 1014.1
20260507113603 44 316 3.0 14.0 0.00 0.00 0.00 64 1013.9
20260507112703 45 356 0.0 3.0 0.00 0.00 0.00 62 1013.7
20260507111803 45 183 4.0 9.0 0.00 0.00 0.00 63 1013.6
20260507110903 45 199 4.0 12.0 0.00 0.00 0.00 63 1013.6
20260507110025 46 291 4.0 12.0 0.00 0.00 0.00 59 1013.5
20260507105403 46 309 2.0 7.0 0.00 0.00 0.00 58 1013.5
20260507104504 45 350 2.0 9.0 0.00 0.00 0.00 62 1013.5
20260507103603 44 8 3.0 5.0 0.00 0.00 0.00 62 1013.5
20260507102703 44 283 2.0 5.0 0.00 0.00 0.00 65 1013.6
20260507101803 43 271 2.0 10.0 0.00 0.00 0.00 67 1013.6
20260507100903 44 291 7.0 15.0 0.00 0.00 0.00 63 1013.6
20260507100004 45 290 10.0 19.0 0.00 0.00 0.00 57 1013.3
20260507095403 45 294 10.0 18.0 0.00 0.00 0.00 54 1013.4
20260507094504 45 292 9.0 14.0 0.00 0.00 0.00 53 1013.4
20260507093603 45 275 9.0 17.0 0.00 0.00 0.00 55 1013.3
20260507092703 46 279 7.0 16.0 0.00 0.00 0.00 55 1013.2
20260507091803 47 261 5.0 13.0 0.00 0.00 0.00 50 1013.1
20260507090924 47 270 4.0 10.0 0.00 0.00 0.00 49 1013.0
20260507090024 48 282 8.0 16.0 0.00 0.00 0.00 46 1013.0
20260507085403 49 289 7.0 16.0 0.00 0.00 0.00 44 1012.9
20260507084503 50 272 5.0 15.0 0.00 0.00 0.00 43 1012.9
20260507083603 51 239 4.0 10.0 0.00 0.00 0.00 44 1012.8
20260507082724 51 186 5.0 15.0 0.00 0.00 0.00 44 1013.0
20260507081803 50 188 6.0 15.0 0.00 0.00 0.00 48 1012.9
20260507080903 49 207 4.0 12.0 0.00 0.00 0.00 50 1013.0
20260507080004 49 203 3.0 9.0 0.00 0.00 0.00 51 1013.0
20260507075403 49 198 4.0 10.0 0.00 0.00 0.00 52 1013.0
20260507074503 48 213 4.0 12.0 0.00 0.00 0.00 54 1012.9
20260507073603 48 225 4.0 11.0 0.00 0.00 0.00 54 1012.9
20260507072703 48 164 5.0 11.0 0.00 0.00 0.00 57 1012.9
20260507071803 47 164 6.0 12.0 0.00 0.00 0.00 62 1012.9
20260507070903 46 170 5.0 9.0 0.00 0.00 0.00 63 1012.9
20260507070024 46 168 6.0 11.0 0.00 0.00 0.00 65 1012.9
20260507065403 46 174 5.0 11.0 0.00 0.00 0.00 65 1012.9
20260507064503 46 166 5.0 10.0 0.00 0.00 0.00 66 1012.9
20260507063624 45 156 6.0 10.0 0.00 0.00 0.00 67 1012.8
20260507062724 44 162 5.0 9.0 0.00 0.00 0.00 69 1012.9
20260507061803 43 166 3.0 8.0 0.00 0.00 0.00 72 1012.9
20260507060925 42 248 3.0 7.0 0.00 0.00 0.00 70 1012.8
20260507060003 42 228 2.0 8.0 0.00 0.00 0.00 71 1012.8
20260507055403 42 203 2.0 8.0 0.00 0.00 0.00 73 1012.8
20260507054503 41 203 3.0 9.0 0.00 0.00 0.00 75 1012.7
20260507053624 40 210 2.0 6.0 0.00 0.00 0.00 76 1012.8
20260507052703 40 200 2.0 6.0 0.00 0.00 0.00 77 1012.8
20260507051803 40 197 2.0 7.0 0.00 0.00 0.00 77 1012.8
20260507050903 40 202 2.0 7.0 0.00 0.00 0.00 78 1012.6
20260507050003 40 177 3.0 6.0 0.00 0.00 0.00 79 1012.2
20260507045403 39 186 4.0 7.0 0.00 0.00 0.00 80 1012.8
20260507044503 38 185 2.0 7.0 0.00 0.00 0.00 84 1012.3
20260507043603 36 157 2.0 5.0 0.00 0.00 0.00 85 1012.3
20260507042703 35 171 2.0 4.0 0.00 0.00 0.00 88 1012.7
20260507041824 34 179 1.0 4.0 0.00 0.00 0.00 91 1012.3
20260507040924 32 175 0.0 1.0 0.00 0.00 0.00 94 1012.0
20260507040003 30 0 0.0 0.0 0.00 0.00 0.00 93 1011.5
20260507035403 28 176 0.0 2.0 0.00 0.00 0.00 93 1010.3
20260507034503 28 176 1.0 3.0 0.00 0.00 0.00 92 1013.3
20260507033624 28 176 1.0 3.0 0.00 0.00 0.00 93 1012.5
20260507032724 27 176 3.0 4.0 0.00 0.00 0.00 94 1012.5
20260507031803 26 176 2.0 4.0 0.00 0.00 0.00 93 1012.3
20260507030903 26 0 0.0 0.0 0.00 0.00 0.00 93 1012.3
20260507030003 25 176 0.0 2.0 0.00 0.00 0.00 93 1012.2
20260507025424 25 176 0.0 2.0 0.00 0.00 0.00 92 1012.3
20260507024503 25 0 0.0 0.0 0.00 0.00 0.00 92 1012.3
20260507023624 25 176 0.0 1.0 0.00 0.00 0.00 92 1012.1
20260507022703 26 0 0.0 0.0 0.00 0.00 0.00 92 1012.1
20260507021803 26 0 0.0 0.0 0.00 0.00 0.00 92 1012.1
20260507020903 26 0 0.0 0.0 0.00 0.00 0.00 93 1012.1
20260507020024 26 0 0.0 0.0 0.00 0.00 0.00 92 1012.1
20260507015403 26 0 0.0 0.0 0.00 0.00 0.00 92 1012.1
20260507014503 26 0 0.0 0.0 0.00 0.00 0.00 92 1012.1
20260507013603 26 0 0.0 0.0 0.00 0.00 0.00 92 1012.1
20260507012703 26 176 0.0 2.0 0.00 0.00 0.00 92 1012.0
20260507011803 26 0 0.0 0.0 0.00 0.00 0.00 92 1012.0
20260507010903 26 0 0.0 0.0 0.00 0.00 0.00 92 1012.1
20260507010004 26 176 0.0 1.0 0.00 0.00 0.00 92 1012.1
20260507005403 26 176 0.0 3.0 0.00 0.00 0.00 92 1012.0
20260507004503 26 0 0.0 0.0 0.00 0.00 0.00 92 1011.9
20260507003603 27 0 0.0 0.0 0.00 0.00 0.00 92 1011.7
20260507002724 27 0 0.0 0.0 0.00 0.00 0.00 92 1011.7
20260507001803 27 0 0.0 0.0 0.00 0.00 0.00 92 1011.7
20260507000903 26 240 0.0 0.0 0.00 0.00 0.00 92 1011.7
20260507000004 26 240 0.0 1.0 0.00 0.00 0.00 92 1011.6
20260506235403 26 240 0.0 1.0 0.00 0.00 0.00 92 1011.6
20260506234524 26 240 0.0 2.0 0.00 0.00 0.00 91 1011.7
20260506233624 27 240 0.0 1.0 0.00 0.00 0.00 92 1011.6
20260506232724 27 240 0.0 2.0 0.00 0.00 0.00 92 1011.5
20260506231803 28 240 0.0 2.0 0.00 0.00 0.00 92 1011.5
20260506230903 28 243 0.0 3.0 0.00 0.00 0.00 92 1011.5
20260506230003 28 0 0.0 0.0 0.00 0.00 0.00 92 1011.5
20260506225403 28 0 0.0 0.0 0.00 0.00 0.00 92 1011.5
20260506224503 28 0 0.0 0.0 0.00 0.00 0.00 92 1011.4
20260506223603 28 331 0.0 1.0 0.00 0.00 0.00 92 1011.3
20260506222703 28 331 0.0 2.0 0.00 0.00 0.00 92 1011.2
20260506221803 28 331 0.0 2.0 0.00 0.00 0.00 92 1011.1
20260506220903 28 0 0.0 0.0 0.00 0.00 0.00 92 1011.2
20260506220024 28 0 0.0 0.0 0.00 0.00 0.00 92 1011.1
20260506215403 28 0 0.0 0.0 0.00 0.00 0.00 91 1011.0
20260506214503 29 331 0.0 1.0 0.00 0.00 0.00 91 1011.0
20260506213603 29 331 0.0 2.0 0.00 0.00 0.00 92 1010.9
20260506212703 29 331 0.0 2.0 0.00 0.00 0.00 92 1011.0
20260506211803 28 331 0.0 2.0 0.00 0.00 0.00 91 1010.9
20260506210903 28 331 0.0 2.0 0.00 0.00 0.00 91 1010.9
20260506210004 28 0 0.0 0.0 0.00 0.00 0.00 90 1010.8
20260506205403 29 0 0.0 0.0 0.00 0.00 0.00 91 1010.8
20260506204503 28 0 0.0 0.0 0.00 0.00 0.00 91 1010.8
20260506203603 28 331 0.0 2.0 0.00 0.00 0.00 90 1010.8
20260506202703 28 0 0.0 0.0 0.00 0.00 0.00 90 1010.9
20260506201803 29 331 0.0 1.0 0.00 0.00 0.00 91 1010.8
20260506200924 28 331 0.0 2.0 0.00 0.00 0.00 89 1010.7
20260506200003 28 331 0.0 1.0 0.00 0.00 0.00 89 1010.7
20260506195403 28 331 0.0 1.0 0.00 0.00 0.00 88 1010.7
20260506194503 29 331 0.0 1.0 0.00 0.00 0.00 88 1010.7
20260506193603 29 331 0.0 1.0 0.00 0.00 0.00 88 1010.7
20260506192724 30 331 0.0 1.0 0.00 0.00 0.00 88 1010.7
20260506191803 30 0 0.0 0.0 0.00 0.00 0.00 87 1010.7
20260506190903 31 0 0.0 0.0 0.00 0.00 0.00 85 1010.6
20260506190006 32 0 0.0 0.0 0.00 0.00 0.00 84 1010.5
20260506185426 32 0 0.0 0.0 0.00 0.00 0.00 84 1010.4
20260506184505 34 0 0.0 0.0 0.00 0.00 0.00 82 1010.4
20260506183605 35 0 0.0 0.0 0.00 0.00 0.00 81 1010.3
20260506182705 36 0 0.0 0.0 0.00 0.00 0.00 78 1010.2